Printer-friendly version
Follow the MPC on Twitter Follow the MPC on Facebook The MPC blog
Minor Planet Center

MPEC 2005-A36 : 2005 AH14

The following Minor Planet Electronic Circular may be linked-to from your own Web pages, but must not otherwise be redistributed electronically.

A form allowing access to any MPEC is at the bottom of this page.


Read MPEC 2005-A35 Read MPEC 2005-A37


M.P.E.C. 2005-A36                                Issued 2005 Jan. 11, 14:20 UT

     The Minor Planet Electronic Circulars contain information on unusual
         minor planets and routine data on comets.  They are published
   on behalf of Commission 20 of the International Astronomical Union by the
          Minor Planet Center, Smithsonian Astrophysical Observatory,
                          Cambridge, MA 02138, U.S.A.

                  Supported in part by the Brinson Foundation
             Prepared using the Tamkin Foundation Computer Network

                              MPC@CFA.HARVARD.EDU
          URL http://cfa-www.harvard.edu/iau/mpc.html  ISSN 1523-6714

                                   2005 AH14

Observations:
     K05A14H* C2005 01 07.48279 13 50 06.72 +05 15 12.5          19.2 R EA036703
     K05A14H  C2005 01 07.48919 13 50 08.03 +05 15 06.8          19.4 R EA036703
     K05A14H  C2005 01 07.49557 13 50 09.24 +05 15 01.6          19.4 R EA036703
     K05A14H  C2005 01 07.50196 13 50 10.57 +05 14 56.3          18.5 R EA036703
     K05A14H dC2005 01 08.14308 13 52 17.32 +05 05 03.0                 EA036118
     K05A14H dC2005 01 08.14656 13 52 18.11 +05 04 58.3                 EA036118
     K05A14H dC2005 01 08.15119 13 52 18.95 +05 04 53.8                 EA036118
     K05A14H dC2005 01 08.15235 13 52 19.18 +05 04 54.3                 EA036118
     K05A14H dC2005 01 08.15352 13 52 19.41 +05 04 52.8                 EA036118
     K05A14H  C2005 01 09.49214 13 56 47.46 +04 44 07.4          20.4 R EA036703
     K05A14H  C2005 01 09.49946 13 56 48.93 +04 44 00.4          19.6 R EA036703
     K05A14H  C2005 01 09.50675 13 56 50.45 +04 43 54.3          19.2 R EA036703
     K05A14H  C2005 01 09.51411 13 56 51.83 +04 43 45.5          19.4 R EA036703
     K05A14H 3C2005 01 09.53222 13 56 55.47 +04 43 29.2          19.7 R EA036290
     K05A14H 3C2005 01 09.53490 13 56 56.03 +04 43 26.6          19.6 R EA036290
     K05A14H 3C2005 01 09.53848 13 56 56.74 +04 43 23.1          19.7 R EA036290
     K05A14H 3C2005 01 09.54219 13 56 57.47 +04 43 19.7          19.7 R EA036290
     K05A14H  C2005 01 10.20916 13 59 12.57 +04 32 48.0          19.8 R EA036118
     K05A14H  C2005 01 10.21322 13 59 13.39 +04 32 44.9          19.9 R EA036118
     K05A14H  C2005 01 10.21993 13 59 14.72 +04 32 37.7          20.1 R EA036118

Observer details:
118 Modra.  Observers S. Gajdos, J. Vilagi.  0.6-m f/5.5 reflector + CCD.
290 Mt. Graham.  Observer W. Ryan.  1.8-m f/9.0 reflector + CCD.
703 Catalina Sky Survey.  Observer S. M. Larson.  Measurers E. C. Beshore,
    C. M. Casey, E. J. Christensen, G. J. Garradd, R. E. Hill, S. M. Larson,
    R. H. McNaught.  0.68-m Schmidt + CCD.

Orbital elements:
2005 AH14
Epoch 2004 Dec. 21.0 TT = JDT 2453360.5                 MPC
M 275.34286              (2000.0)            P               Q
n   0.70129335     Peri.  231.46219     +0.13683623     +0.97822336
a   1.2546894      Node    47.16336     -0.82970975     +0.19924692
e   0.4520721      Incl.   12.28772     -0.54116317     -0.05813536
P   1.41           H   17.5           G   0.15
From 20 observations 2005 Jan. 7-10.

Ephemeris:
2005 AH14                a,e,i = 1.25, 0.45, 12                  q = 0.6875
Date    TT    R. A. (2000) Decl.     Delta      r     Elong.  Phase     V
2005 01 10    13 58.50   +04 36.2    0.983    1.318    84.1    47.9    19.9
2005 01 20    14 34.56   +01 47.7    0.870    1.250    84.5    51.6    19.6
2005 01 30    15 16.19   -01 26.8    0.770    1.178    83.4    56.1    19.3
2005 02 09    16 05.23   -05 10.4    0.687    1.104    80.4    61.8    19.1
2005 02 19    17 03.27   -09 14.6    0.627    1.027    75.2    68.6    19.0
2005 03 01    18 10.36   -13 08.5    0.599    0.949    68.2    75.9    18.9
2005 03 11    19 23.25   -15 58.9    0.608    0.873    60.5    82.2    19.0

Timothy B. Spahr             (C) Copyright 2005 MPC           M.P.E.C. 2005-A36

Read MPEC 2005-A35 Read MPEC 2005-A37


MPEC number:

Enter an MPEC number in one of the following forms:

  • 1997-B01 (the full form)
  • J97B01 (the packed version of the full form)
  • B01 (the abbreviated form)

Valid HTML 4.01!